Current Version              Previous Version:    01  02  03  04  05  06  07  08  09  10  11  12  13  14  15  16  17  18  19  20  21  22  23  24  25  26  27  28  29  30  
   31  32  33  34  35  36  37  38  39  40  41  42  43  44  45  46  47  48  49  50  51  52  53  54  55  56  57  58  59  60  

[Printable]
585
ASUS44 KEWX 161010
RWRTX
SOUTH TEXAS REGIONAL WEATHER ROUNDUP
NATIONAL WEATHER SERVICE AUSTIN/SAN ANTONIO TX
500 AM CDT TUE SEP 16 2014

NOTE: "FAIR" INDICATED FEW OR NO CLOUDS BELOW 12,000 FEET WITH NO
SIGNIFICANT WEATHER AND/OR OBSTRUCTIONS TO VISIBILITY.

* - THESE STATIONS ARE NOT NWS OR FAA STATIONS...AND ARE NOT SUBJECT
    TO NWS AND FAA QUALITY CONTROL.

TXZ171-172-183>190-161100-
TEXAS HILL COUNTRY AND EDWARDS PLATEAU

CITY           SKY/WX    TMP DP  RH WIND       PRES   REMARKS
JUNCTION       CLOUDY    72  66  81 CALM      30.13F
*LLANO         CLOUDY    75  70  83 CALM      30.14S
BURNET         CLOUDY    74  69  85 N3        30.13F
*HORSESHOE BAY CLOUDY    73  67  81 CALM      30.11S
*KERRVILLE     MOCLDY    72  69  90 CALM      30.13S
*FREDERICKSBRG CLOUDY    72  68  88 CALM      30.12F
*ROCKSPRINGS   CLOUDY    70  64  83 CALM      30.17S
*BOERNE STAGE  PTCLDY    72  68  88 CALM      30.12S
*CASTROVILLE   MOCLDY    78  68  71 NE3       30.08S
HONDO          CLOUDY    76  68  76 NE5       30.09F
*UVALDE        CLOUDY    74  69  83 N3        30.08F
DEL RIO        CLOUDY    74  69  85 NE5       30.07F
LAUGHLIN AFB   CLOUDY    72  70  95 NE3       30.08F
CARRIZO SPRGS  CLOUDY    73  70  88 CALM      30.03F
$$

TXZ173-191>194-202-209-217>225-228-161100-
CENTRAL AND SOUTH CENTRAL TEXAS

CITY           SKY/WX    TMP DP  RH WIND       PRES   REMARKS
GEORGETOWN     MOCLDY    73  70  88 CALM      30.09S
AUSTIN/BERGSTM MOCLDY    74  72  93 N5        30.07S
AUSTIN/MABRY   MOCLDY    76  72  87 CALM      30.08F
*AUSTIN/EXEC   MOCLDY    73  72  94 N6        30.08S
*LAGO VISTA    MOCLDY    74  70  87 NE5       30.11S
SAN MARCOS     PTCLDY    73  68  83 N6        30.08S
NEW BRAUNFELS  PTCLDY    76  71  85 NE6       30.06S
RANDOLPH AFB   PTCLDY    76  71  85 NE3       30.07F
PT SAN ANTONIO PTCLDY    77  70  79 N6        30.05F
SAN ANTONIO    MOCLDY    77  72  84 CALM      30.08S
STINSON FIELD  PTCLDY    77  71  82 N6        30.05S
*PLEASANTON    PTCLDY    75  70  83 N5        30.05F
*LA GRANGE     MOCLDY    77  75  95 CALM      30.04S
*GIDDINGS      MOCLDY    74  72  92 CALM      30.10S FOG
*GONZALES      MOCLDY    76  74  93 NE5       30.04S
$$

TXZ163>164-176>182-195>201-210>213-226-227-235-161100-
SOUTHEAST TEXAS

CITY           SKY/WX    TMP DP  RH WIND       PRES   REMARKS
COLLEGE STN    MOCLDY    76  72  87 E5        30.06S
*BRYAN         MOCLDY   N/A N/A N/A E3        30.06F
*CALDWELL      MOCLDY    73  73 100 CALM      30.09F
*CROCKETT      MOCLDY    75  75 100 NE5       30.10F FOG
*BRENHAM       MOCLDY    76  74  93 CALM      30.06S
HUNTSVILLE     MOCLDY    74  72  93 CALM      30.07F
CONROE         MOCLDY    75  73  93 CALM      30.06S
HOUSTON BUSH   MOCLDY    75  74  96 NE3       30.04S
HOUSTON HOBBY  MOCLDY    79  77  94 E3        30.03S
*HOUSTON SW AP MOCLDY    78  78 100 NE5       30.03F
PEARLAND       LGT RAIN  79  78  97 E6        30.04S
HOUSTON HOOKS  MOCLDY    76  74  93 CALM      30.05S
ELLINGTON FLD  MOCLDY    79  79 100 NE3       30.04F
SUGAR LAND     MOCLDY    80  77  90 NE3       30.02F
*HOUSTON EXEC  MOCLDY    75  75 100 N3        30.06R
*CLEVELAND MUN MOCLDY    75  74  98 CALM      30.06S FOG
*WHARTON       PTCLDY    76  74  96 CALM      30.03S FOG
$$

TXZ214>216-236>238-161100-
THE UPPER TEXAS COAST

CITY           SKY/WX    TMP DP  RH WIND       PRES   REMARKS
*ORANGE        PTCLDY   N/A N/A N/A CALM      30.06S
PORT ARTHUR    CLEAR     79  76  90 NE5       30.04S
GALVESTON      RAIN      79  76  90 VRB5      30.03S
ANGLETON       CLEAR     78  76  93 NE5       30.02S
*BAY CITY      MOCLDY   N/A N/A N/A CALM      30.01F
PALACIOS       CLEAR     78  76  93 NE7       30.01S
$$

TXZ229>234-239>247-161100-
TEXAS COASTAL BEND AND RIO GRANDE PLAINS

CITY           SKY/WX    TMP DP  RH WIND       PRES   REMARKS
VICTORIA       PTCLDY    78  76  93 NE8       30.02S
*BEEVILLE      PTCLDY    77  77  99 NE7       30.01S
ROCKPORT       CLOUDY   N/A N/A N/A NE5       29.98F
*PORT ARANSAS  CLOUDY    82  77  85 SE7       29.97F HX  90
*PORT LAVACA   CLEAR     77  76  96 E5        30.01S
*INGLESIDE     CLOUDY    81  79  94 NE3       29.98S
CORPUS CHRISTI LGT RAIN  79  77  94 N9        29.98F
CORPUS NAS     MOCLDY   N/A N/A N/A S3        29.97S
*ROBSTOWN      NOT AVBL
ALICE          PTCLDY    78  76  93 N6        29.99S
KINGSVILLE NAS LGT RAIN  79  79 100 N5        29.98F
COTULLA        MOCLDY    77  70  79 CALM      30.04F
*FAITH RANCH   MOCLDY    73  68  83 N5        30.07F
LAREDO         MOCLDY    76  71  84 CALM      30.05F
$$

TXZ248>255-161100-
DEEP SOUTH TEXAS

CITY           SKY/WX    TMP DP  RH WIND       PRES   REMARKS
BROWNSVILLE    CLOUDY    75  75 100 CALM      29.98F FOG
PORT ISABEL    CLOUDY    76  74  93 CALM      29.97F FOG
*SOUTH PADRE   CLOUDY    77  77 100 CALM      29.98F
HARLINGEN      CLOUDY    77  76  96 S3        29.97F FOG
*HEBBRONVILLE  PTCLDY    76  73  91 NW6       30.03F
MCALLEN        CLOUDY    78  76  93 CALM      29.99F
*WESLACO       CLOUDY    77  74  92 CALM      29.98F FOG
FALFURRIAS     MOCLDY    61  58  91 CALM      29.98F
EDINBURG       CLOUDY    78  75  88 W3        29.99S
*ZAPATA        CLOUDY    77  74  90 CALM      30.01F
$$

TXZ213>215-236>238-242>244-246-247-251-254-255-161100-
CMAN STATIONS

STATION/POSITION TIME  TEMP    WIND        PRES    WAVE
                       AIR SEA DIR/SP/G            HT/PER
                 (UTC) (F)     (DEG/KT/KT) (MB)    (FT/S)
SABINE PASS      1000   79 83   40/  5/  5 1017.2
SEA RIM ST PARK  1000   78     100/  2/  3 1017.7
NORTH JETTY/GLS  1000   82 84  150/ 12/ 13   N/A
EAGLE POINT      1000   80 81   80/  8/ 10 1016.9
MORGANS POINT    1000   79      70/  6/ 10 1016.6
MISSION/ARANSAS  0900   71      40/  9     1017.0
PORT O`CONNOR    1000           90/ 11/ 14   N/A
PORT ARANSAS     1000   83 83  120/ 12/ 13 1015.5
MALAQUITE BEACH  1000   83 84  120/ 10/ 12 1014.0
BAFFIN BAY       1000   79 81  360/  8/ 10 1014.8
PORT ISABEL      1000   76 81     CALM     1015.4
$$

GMZ080-GMZ150>470-161100-
OFFSHORE BUOY REPORTS

STATION/POSITION TIME  TEMP    WIND        PRES    WAVE
                       AIR SEA DIR/SP/G            HT/PER
                 (UTC) (F)     (DEG/KT/KT) (MB)    (FT/S)
20 E GALVESTON   1000   78 84  360/  8/ 10 1016.5    2/ 6
90 E PT ARANSAS  1000   84 85  170/ 14/ 16 1016.0    3/ 6
35 NE PT MANSFLD 1000   83 84  170/ 14/ 17 1014.3    3/ 7
200 E PT ISABEL  1000   84 85  170/ 14/ 17 1016.1    3/ 6
$$